Date String (YYYY-MM-DD hh:mm:ss) UTC,Instrument flags,Ambient pressure (hPa),Sample flow (lpm),Bypass flow (lpm),Sample temperature (°C),Ambient temperature (°C),ASC tube jacket temperature (°C),LED temperature (°C),Box temperature (°C),Sample RH (%),Span deviation,Mass concentration (μg/m³),Mass concentration (μg/m³),Mass concentration (μg/m³)
DateTimeUTC,F1_M11,P_M11,Q1_M11,Q2_M11,T1_M11,T2_M11,T3_M11,T4_M11,T5_M11,U1_M11,ZSPAN_M11,X0_M11,X2_M11,X1_M11
2022-11-04 00:00:00,,0821.8,5.00,0.00,24.3,22.7,00.0,33.2,26.2,16.8,0000.0,0007.50,0004.17,0003.62
2022-11-04 00:01:00,,0821.8,5.00,0.00,24.3,22.6,00.0,33.2,26.2,16.8,0000.0,0007.39,0004.18,0003.61
2022-11-04 00:02:00,,0821.8,4.99,0.00,24.3,22.6,00.0,33.2,26.2,16.8,0000.0,0007.51,0004.20,0003.59
2022-11-04 00:03:00,,0821.9,5.00,0.00,24.3,22.6,00.0,33.1,26.2,16.8,0000.0,0007.41,0004.18,0003.58
2022-11-04 00:04:00,,0822.0,5.00,0.00,24.3,22.5,00.0,33.1,26.1,16.8,0000.0,0007.30,0004.14,0003.57
2022-11-04 00:05:00,,0822.1,5.00,0.00,24.2,22.5,00.0,33.1,26.1,16.8,0000.0,0007.19,0004.14,0003.57
2022-11-04 00:06:00,,0821.9,5.00,0.00,24.2,22.5,00.0,33.1,26.1,16.8,0000.0,0007.10,0004.13,0003.57
2022-11-04 00:07:00,,0821.8,5.01,0.00,24.2,22.5,00.0,33.1,26.1,16.8,0000.0,0007.21,0004.10,0003.57
2022-11-04 00:08:00,,0821.9,5.01,0.00,24.2,22.4,00.0,33.1,26.0,16.8,0000.0,0007.55,0004.07,0003.57
2022-11-04 00:09:00,,0821.8,5.00,0.00,24.2,22.4,00.0,33.0,26.1,16.8,0000.0,0007.51,0004.05,0003.57
2022-11-04 00:10:00,,0821.8,5.00,0.00,24.2,22.5,00.0,33.0,26.0,16.8,0000.0,0007.46,0004.04,0003.57
2022-11-04 00:11:00,,0821.7,5.00,0.00,24.2,22.5,00.0,33.0,26.0,16.8,0000.0,0007.47,0004.00,0003.57
2022-11-04 00:12:00,,0821.6,5.01,0.00,24.1,22.5,00.0,33.0,26.0,16.8,0000.0,0007.51,0003.99,0003.57
2022-11-04 00:13:00,,0821.5,4.99,0.00,24.1,22.4,00.0,33.0,26.0,16.8,0000.0,0007.43,0003.96,0003.57
2022-11-04 00:14:00,,0821.5,5.00,0.00,24.1,22.4,00.0,33.0,26.0,16.8,0000.0,0007.36,0003.92,0003.57
2022-11-04 00:15:00,,0821.4,5.01,0.00,24.1,22.4,00.0,33.0,26.0,16.8,0000.0,0007.36,0003.94,0003.57
2022-11-04 00:16:00,,0821.4,5.00,0.00,24.1,22.5,00.0,32.9,26.0,16.8,0000.0,0007.37,0003.95,0003.58
2022-11-04 00:17:00,,0821.4,4.98,0.00,24.1,22.4,00.0,32.9,26.0,16.8,0000.0,0007.31,0003.94,0003.59
2022-11-04 00:18:00,,0821.5,5.00,0.00,24.1,22.4,00.0,32.9,26.0,16.8,0000.0,0006.94,0003.96,0003.60
2022-11-04 00:19:00,,0821.6,5.00,0.00,24.1,22.4,00.0,32.9,26.0,16.9,0000.0,0006.40,0003.96,0003.62
2022-11-04 00:20:00,,0821.7,5.00,0.00,24.1,22.4,00.0,32.9,26.0,16.9,0000.0,0006.63,0003.96,0003.63
2022-11-04 00:21:00,,0821.8,5.00,0.00,24.1,22.4,00.0,32.9,26.0,16.9,0000.0,0006.83,0004.01,0003.64
2022-11-04 00:22:00,,0821.8,5.00,0.00,24.1,22.4,00.0,32.9,26.0,16.9,0000.0,0006.68,0004.03,0003.66
2022-11-04 00:23:00,,0822.0,5.00,0.00,24.0,22.4,00.0,32.9,26.0,16.9,0000.0,0006.46,0004.01,0003.66
2022-11-04 00:24:00,,0822.0,5.00,0.00,24.0,22.4,00.0,32.9,26.0,16.9,0000.0,0006.38,0004.01,0003.67
2022-11-04 00:25:00,,0822.1,5.00,0.00,24.0,22.4,00.0,32.8,26.0,16.9,0000.0,0006.40,0004.02,0003.68
2022-11-04 00:26:00,,0822.3,5.00,0.00,24.0,22.4,00.0,32.8,26.0,17.0,0000.0,0006.51,0003.98,0003.67
2022-11-04 00:27:00,,0822.3,4.98,0.00,24.0,22.4,00.0,32.8,25.9,17.0,0000.0,0006.63,0003.97,0003.67
2022-11-04 00:28:00,,0822.4,5.01,0.00,24.0,22.4,00.0,32.8,25.9,17.0,0000.0,0006.63,0003.96,0003.66
2022-11-04 00:29:00,,0822.4,5.00,0.00,24.0,22.4,00.0,32.8,26.0,17.0,0000.0,0006.54,0003.92,0003.65
2022-11-04 00:30:00,,0822.3,5.00,0.00,24.0,22.5,00.0,32.8,25.9,17.0,0000.0,0006.52,0003.92,0003.64
2022-11-04 00:31:00,,0822.2,5.00,0.00,24.0,22.5,00.0,32.8,25.9,17.0,0000.0,0006.33,0003.93,0003.63
2022-11-04 00:32:00,,0822.2,5.01,0.00,24.0,22.5,00.0,32.8,25.9,17.0,0000.0,0006.37,0003.92,0003.64
2022-11-04 00:33:00,,0822.2,5.00,0.00,24.0,22.5,00.0,32.8,26.0,17.0,0000.0,0006.75,0003.92,0003.63
2022-11-04 00:34:00,,0822.2,4.99,0.00,24.0,22.5,00.0,32.8,26.0,17.0,0000.0,0007.07,0003.96,0003.63
2022-11-04 00:35:00,,0822.2,5.00,0.00,24.0,22.5,00.0,32.8,25.9,17.0,0000.0,0007.17,0004.00,0003.65
2022-11-04 00:36:00,,0822.1,5.00,0.00,24.0,22.5,00.0,32.8,25.9,17.1,0000.0,0007.20,0004.01,0003.66
2022-11-04 00:37:00,,0822.1,5.01,0.00,24.0,22.5,00.0,32.8,25.9,17.1,0000.0,0007.24,0004.07,0003.68
2022-11-04 00:38:00,,0822.1,4.99,0.00,24.0,22.5,00.0,32.8,26.0,17.0,0000.0,0007.29,0004.14,0003.71
2022-11-04 00:39:00,,0822.0,5.01,0.00,24.0,22.5,00.0,32.8,26.0,17.1,0000.0,0007.33,0004.16,0003.73
2022-11-04 00:40:00,,0822.1,5.01,0.00,24.0,22.5,00.0,32.8,26.0,17.1,0000.0,0008.05,0004.21,0003.76
2022-11-04 00:41:00,,0822.1,5.00,0.00,24.0,22.5,00.0,32.8,26.0,17.1,0000.0,0008.39,0004.26,0003.80
2022-11-04 00:42:00,,0822.2,4.99,0.00,24.0,22.5,00.0,32.8,26.0,17.1,0000.0,0008.52,0004.31,0003.83
2022-11-04 00:43:00,,0822.3,4.99,0.00,24.0,22.5,00.0,32.8,26.0,17.1,0000.0,0008.56,0004.36,0003.86
2022-11-04 00:44:00,,0822.3,5.01,0.00,24.0,22.5,00.0,32.8,26.0,17.1,0000.0,0008.41,0004.38,0003.90
2022-11-04 00:45:00,,0822.3,5.00,0.00,24.0,22.5,00.0,32.8,26.0,17.1,0000.0,0008.26,0004.42,0003.94
2022-11-04 00:46:00,,0822.2,5.00,0.00,24.0,22.5,00.0,32.8,25.9,17.1,0000.0,0008.28,0004.44,0003.98
2022-11-04 00:47:00,,0822.2,5.00,0.00,24.0,22.5,00.0,32.8,25.9,17.1,0000.0,0008.35,0004.46,0004.00
2022-11-04 00:48:00,,0822.1,5.00,0.00,24.0,22.5,00.0,32.8,25.9,17.1,0000.0,0008.33,0004.44,0004.02
2022-11-04 00:49:00,,0822.2,5.00,0.00,24.0,22.5,00.0,32.8,25.9,17.1,0000.0,0008.33,0004.42,0004.04
2022-11-04 00:50:00,,0822.2,5.00,0.00,24.0,22.5,00.0,32.8,25.9,17.1,0000.0,0008.39,0004.46,0004.05
2022-11-04 00:51:00,,0822.2,5.00,0.00,24.0,22.5,00.0,32.8,25.9,17.2,0000.0,0007.88,0004.46,0004.05
2022-11-04 00:52:00,,0822.3,5.00,0.00,24.0,22.5,00.0,32.7,25.9,17.1,0000.0,0007.48,0004.46,0004.05
2022-11-04 00:53:00,,0822.2,4.99,0.00,24.0,22.4,00.0,32.7,25.9,17.1,0000.0,0007.39,0004.45,0004.05
2022-11-04 00:54:00,,0822.3,5.00,0.00,24.0,22.4,00.0,32.7,25.9,17.1,0000.0,0007.24,0004.42,0004.05
2022-11-04 00:55:00,,0822.4,5.00,0.00,24.0,22.4,00.0,32.7,25.9,17.1,0000.0,0007.34,0004.44,0004.04
2022-11-04 00:56:00,,0822.4,5.02,0.00,24.0,22.4,00.0,32.7,25.9,17.1,0000.0,0007.48,0004.45,0004.03
2022-11-04 00:57:00,,0822.4,4.98,0.00,24.0,22.4,00.0,32.7,25.9,17.2,0000.0,0007.60,0004.48,0004.03
2022-11-04 00:58:00,,0822.4,5.01,0.00,24.0,22.5,00.0,32.7,25.9,17.1,0000.0,0007.63,0004.49,0004.02
2022-11-04 00:59:00,,0822.5,5.01,0.00,24.0,22.4,00.0,32.7,25.9,17.1,0000.0,0007.60,0004.49,0004.01
